Location: �clusier
(49.9361°N, 2.7869°E)
Time: 20:20:15
(UTC+00:00)

Centaur D AC-29 - Pass Details

Date: 24 October 2021
Orbit: 563 x 36274 km, 26.9° (Epoch: 02 December)

Event Time Altitude Azimuth Distance (km) Brightness Sun altitude
Rises 00:53:57 0° 171° (S) 13,114 7.5 -48.4°
Reaches altitude 10° 01:09:36 10° 160° (SSE) 15,966 7.9 -47.0°
Maximum altitude 09:24:56 59° 198° (SSW) 20,912 9.4 22.1°
Drops below altitude 10° 10:40:28 10° 127° (SE) 7,629 7.5 27.1°
Sets 10:43:52 0° 122° (ESE) 7,617 7.2 27.2°
